#timestamp,LO_Frequency,Hit,StdDev 
1555959615.0,286046960.9,N
1555959615.9,286046960.9,N
1555959635.8,286046967.4,N
1555959655.6,286046960.5,Y
1555959675.4,286046999.2,P
1555959695.3,286046995.4,N
1555959715.1,286047002.6,N
1555959735.9,286046996.9,N
1555959755.7,286046997.7,N
1555959805.6,286047010.8,E
1555959815.5,286047008.6,N
1555959835.3,286047012.4,P
1555959855.1,286047010.8,P
1555959875.9,286047017.2,Y
1555959895.7,286047007.9,P
1555959915.6,286047008.2,P
1555959935.4,286047007.7,P
1555959955.2,286047003.9,Y
1555959975.1,286046997.0,P
1555959976.0,286046997.0,N
1555959995.8,286046996.0,N
1555960015.7,286046996.6,N
1555960035.5,286046989.8,N
1555960055.3,286046985.6,N
1555960075.2,286046988.7,N
1555960095.0,286046982.9,N
1555960095.9,286046982.9,N
1555960115.8,286046975.1,Y
1555960135.6,286046985.7,P
1555960155.5,286046988.3,P
1555960175.3,286046980.9,P
1555960195.1,286046989.3,N
1555960215.9,286046997.7,N
1555960235.7,286046995.9,N
1555960255.5,286046996.8,N
1555960275.4,286046996.9,N
1555960295.2,286046997.9,N
1555960315.1,286046983.7,N
1555960316.0,286046983.7,N
1555960335.8,286046989.9,N
1555960355.6,286046990.1,N
1555960375.5,286046994.4,N
1555960395.3,286046988.1,N
1555960415.1,286046988.4,N
1555960435.9,286046993.8,N
1555960455.7,286047001.2,N
1555960475.6,286047001.0,N
1555960495.4,286046990.7,N
1555960515.2,286046985.4,N
1555960535.1,286046992.5,N
1555960536.0,286046992.5,N
1555960555.8,286046983.8,N
1555960575.7,286046972.8,Y
1555960595.5,286046979.4,P
1555960615.3,286046982.3,N
1555960635.2,286046985.0,N
1555960655.0,286046986.9,Y
1555960655.9,286046986.9,P
1555960675.8,286047006.2,P
1555960695.6,286047002.6,N
1555960715.5,286046995.7,N
1555960735.3,286046989.2,N
1555960755.1,286046986.9,N
1555960775.9,286046992.1,N
1555960795.7,286046998.3,N
1555960815.5,286046998.3,N
1555960835.4,286046996.6,N
1555960855.2,286046991.8,N
1555960875.1,286046999.6,N
1555960876.0,286046999.6,N
1555960895.8,286047000.7,N
1555960915.6,286046995.0,N
1555960935.5,286046995.3,N
1555960955.3,286046995.3,N
1555960975.1,286046998.9,N
1555960995.9,286046999.9,N
1555961015.7,286047002.3,N
1555961035.6,286047007.4,N
1555961055.4,286047010.1,N
1555961075.2,286047009.8,N
1555961095.1,286047015.6,N
1555961096.0,286047015.6,N
1555961115.8,286047007.4,N
1555961135.7,286047010.5,N
1555961155.5,286047007.9,N
1555961175.3,286047005.3,N
1555961195.2,286046996.8,N
1555961215.0,286046990.1,N
1555961215.9,286046990.1,N
1555961235.7,286046997.6,N
1555961255.6,286046999.2,N
1555961275.4,286046997.6,N
1555961295.3,286046991.9,N
1555961315.1,286046997.6,N
1555961335.8,286046999.2,N
1555961355.7,286047002.6,N
1555961375.5,286047007.8,N
1555961395.4,286047010.5,N
1555961415.2,286047017.1,N
1555961435.0,286047007.2,N
1555961435.9,286047007.2,N
1555961455.8,286047008.9,N
1555961475.6,286047015.1,N
1555961495.5,286047018.8,N
1555961515.3,286047018.2,N
1555961535.1,286047024.0,N
1555961555.9,286047025.3,N
1555961575.7,286047023.8,N
1555961595.6,286047020.6,N
1555961615.4,286047015.7,N
1555961635.2,286047016.5,N
1555961655.1,286047011.4,N
1555961656.0,286047011.4,N
1555961675.8,286047007.4,N
1555961695.7,286047008.1,N
1555961715.5,286047011.5,N
1555961735.3,286047011.9,N
1555961755.2,286047004.2,N
1555961775.0,286047005.5,N
1555961775.9,286047005.5,N
1555961795.7,286047008.1,N
1555961815.6,286047017.1,N
1555961835.4,286047016.7,N
1555961855.3,286047017.1,N
1555961875.1,286047014.8,N
1555961895.8,286047015.7,N
1555961915.7,286047017.5,Y
1555961935.5,286047006.0,P
1555961955.4,286047006.9,N
1555961975.2,286047003.4,N
1555961995.0,286047002.2,N
1555961995.9,286047002.2,N
1555962015.8,286047009.1,N
1555962035.6,286047013.4,Y
1555962055.5,286047010.8,P
1555962075.3,286047015.4,P
1555962095.1,286047021.9,P
1555962115.9,286047012.6,N
1555962135.7,286047007.7,N
1555962155.5,286047000.6,N
1555962175.4,286047003.6,N
1555962195.2,286047004.7,N
1555962215.1,286047010.6,N
1555962216.0,286047010.6,N
1555962235.8,286047015.3,N
1555962255.6,286047007.8,N
1555962275.5,286046997.9,N
1555962295.3,286046989.9,N
1555962315.1,286046985.9,N
1555962335.9,286046988.2,N
1555962355.7,286046988.9,N
1555962375.6,286046997.8,N
1555962395.4,286047000.7,N
1555962415.2,286047002.0,N
1555962435.1,286047005.1,N
1555962436.0,286047005.1,N
1555962455.8,286047009.7,N
1555962475.7,286047012.0,N
1555962495.5,286047012.7,N
1555962515.3,286047014.4,N
1555962535.2,286047016.0,N
1555962555.9,286047014.6,N
1555962575.7,286047006.8,N
1555962595.6,286047006.6,N
1555962615.4,286047013.5,N
1555962635.3,286047007.3,N
1555962655.1,286047000.4,N
1555962656.0,286047000.4,N
1555962675.8,286046995.3,N
1555962695.7,286046997.2,N
1555962715.5,286047002.0,N
1555962735.3,286047008.5,N
1555962755.2,286047016.8,N
1555962775.0,286047013.4,N
1555962775.9,286047013.4,N
1555962795.8,286047010.5,N
1555962815.6,286047011.7,N
1555962835.4,286047007.2,N
1555962855.3,286047009.9,N
1555962875.1,286047010.6,N
1555962895.8,286047005.3,N
1555962915.7,286047005.9,N
1555962935.5,286046997.1,N
1555962955.4,286046996.7,N
1555962975.2,286046991.2,N
1555962995.0,286046996.8,N
1555962995.9,286046996.8,N
1555963015.8,286047001.9,N
1555963035.6,286047003.5,N
1555963055.5,286047005.7,N
1555963075.3,286047009.3,N
1555963095.1,286047012.0,N
1555963115.9,286047005.4,N
1555963135.7,286046997.1,N
1555963155.5,286046994.9,N
1555963175.4,286047000.5,N
1555963195.2,286047007.6,N
